Flag for Canada Weather past 2 weeks in Bathurst, New Brunswick, Canada

Now
73 °F

Scattered clouds.


Feels Like: 75 °F
Forecast: N/A
Wind: 5 mph from Northeast

Location: Bathurst Airport

Current Time: Jul 31, 2014 at 5:37:21 PM

Latest Report: Jul 31, 2014 at 5:00 PM


Visibility: 15 mi

Pressure: 30.03 "Hg

Humidity: 74%

Dew point: 64 °F

Location of BathurstLocation

Historic Weather in Bathurst — Graph

°F

Bathurst temperature yesterday

Maximum temperature yesterday: 72 °F (at 5:00 PM)
Minimum temperature yesterday: 52 °F (at 6:00 AM)
Average temperature yesterday: 64 °F

Past Weeks' High & Low Weather Summary

 TemperatureHumidityPressure
High90 °F (Jul 23, 2:00 PM)100% (Jul 17, 12:56 AM)30.25 "Hg (Jul 17, 12:56 AM)
Low48 °F (Jul 25, 5:00 AM)32% (Jul 25, 2:00 PM)29.51 "Hg (Jul 29, 6:00 AM)
Average68 °F75%29.88 "Hg
* Reported Jul 16 4:00 PM — Jul 31 4:00 PM, Bathurst, Weather by CustomWeather, © 2014

Note: Actual official high and low records may vary slightly from our data, if they occured in-between our weather recording intervals... More about our weather records

Advertising

Bathurst weather history for previous 24 hours

 ConditionsComfort  
Time TempWeatherWind HumidityBarometerVisibility
4:00 PM
Jul 31
73 °FScattered clouds.8 mph78%30.02 "Hg15 mi
3:00 PM75 °FScattered clouds.5 mph74%30.02 "Hg15 mi
2:00 PM73 °FPartly sunny.3 mph74%30.03 "Hg15 mi
1:00 PM68 °FPartly sunny.5 mph88%30.03 "Hg12 mi
12:00 PM66 °FDrizzle. Low clouds.5 mph94%30.05 "Hg8 mi
11:00 AM64 °FDrizzle. Fog.3 mph100%30.04 "Hg1 mi
10:00 AM66 °FFog.5 mph94%30.04 "Hg1 mi
9:00 AM64 °FFog.3 mph100%30.04 "Hg1 mi
8:00 AM64 °FFog.3 mph100%30.04 "Hg0 mi
7:47 AM64 °FFog.2 mph100%30.04 "Hg0 mi
7:00 AM63 °FDrizzle. Fog.5 mph100%30.04 "Hg1 mi
6:00 AM63 °FFog.3 mph100%30.03 "Hg0 mi
5:46 AM63 °FFog.3 mph94%30.04 "Hg0 mi
5:00 AM61 °FFog.2 mph100%30.03 "Hg5 mi
4:00 AM61 °FFog.3 mph94%30.03 "Hg1 mi
3:00 AM59 °FPassing clouds.2 mph100%30.04 "Hg10 mi
2:00 AM61 °FClear.No wind94%30.04 "Hg15 mi
1:00 AM63 °FPassing clouds.No wind94%30.03 "Hg15 mi
12:00 AM64 °FPassing clouds.2 mph94%30.04 "Hg15 mi
11:00 PM
Jul 30
66 °FPassing clouds.No wind88%30.05 "Hg15 mi
10:00 PM66 °FOvercast.2 mph88%30.05 "Hg15 mi
9:00 PM68 °FBroken clouds.6 mph78%30.04 "Hg15 mi
8:00 PM70 °FBroken clouds.3 mph78%30.05 "Hg15 mi
7:00 PM70 °FMore clouds than sun.2 mph78%30.04 "Hg15 mi
6:00 PM70 °FOvercast.3 mph78%30.03 "Hg15 mi
5:00 PM72 °FCloudy.6 mph69%30.03 "Hg15 mi
Weather by CustomWeather, © 2014

See weather overviewHow to use our weather pages